Time,TemperatureF,DewpointF,PressureIn,WindDirection,WindDirectionDegrees,WindSpeedMPH,WindSpeedGustMPH,Humidity,HourlyPrecipIn,Conditions,Clouds,dailyrainin,SolarRadiationWatts/m^2,SoftwareType,DateUTC
2013-06-06 00:02:00,62.0,15.0,-100.00,West,259,9.0,14.0,16,0.00,,,0.00,0.000000,,2013-06-06 07:02:00,
2013-06-06 00:12:00,62.0,15.0,-100.00,West,259,9.0,14.0,16,0.00,,,0.00,0.000000,,2013-06-06 07:12:00,
2013-06-06 00:22:00,62.0,15.0,-100.00,West,259,9.0,14.0,16,0.00,,,0.00,0.000000,,2013-06-06 07:22:00,
2013-06-06 00:32:00,62.0,15.0,-100.00,West,259,9.0,14.0,16,0.00,,,0.00,0.000000,,2013-06-06 07:32:00,
2013-06-06 01:02:00,62.0,12.0,-100.00,NW,306,6.0,15.0,14,0.00,,,0.00,0.000000,,2013-06-06 08:02:00,
2013-06-06 01:12:00,62.0,12.0,-100.00,NW,306,6.0,15.0,14,0.00,,,0.00,0.000000,,2013-06-06 08:12:00,
2013-06-06 01:22:00,62.0,12.0,-100.00,NW,306,6.0,15.0,14,0.00,,,0.00,0.000000,,2013-06-06 08:22:00,
2013-06-06 01:32:00,62.0,12.0,-100.00,NW,306,6.0,15.0,14,0.00,,,0.00,0.000000,,2013-06-06 08:32:00,
2013-06-06 01:52:00,62.0,17.0,-100.00,NW,322,5.0,12.0,17,0.00,,,0.00,0.000000,,2013-06-06 08:52:00,
2013-06-06 02:02:00,62.0,17.0,-100.00,NW,322,5.0,12.0,17,0.00,,,0.00,0.000000,,2013-06-06 09:02:00,
2013-06-06 02:12:00,62.0,17.0,-100.00,NW,322,5.0,12.0,17,0.00,,,0.00,0.000000,,2013-06-06 09:12:00,
2013-06-06 02:22:00,62.0,17.0,-100.00,NW,322,5.0,12.0,17,0.00,,,0.00,0.000000,,2013-06-06 09:22:00,
2013-06-06 02:32:00,62.0,17.0,-100.00,NW,322,5.0,12.0,17,0.00,,,0.00,0.000000,,2013-06-06 09:32:00,
2013-06-06 02:53:00,62.0,12.0,-100.00,NW,312,5.0,11.0,14,0.00,,,0.00,0.000000,,2013-06-06 09:53:00,
2013-06-06 03:03:00,62.0,12.0,-100.00,NW,312,5.0,11.0,14,0.00,,,0.00,0.000000,,2013-06-06 10:03:00,
2013-06-06 03:12:00,62.0,12.0,-100.00,NW,312,5.0,11.0,14,0.00,,,0.00,0.000000,,2013-06-06 10:12:00,
2013-06-06 03:22:00,62.0,12.0,-100.00,NW,312,5.0,11.0,14,0.00,,,0.00,0.000000,,2013-06-06 10:22:00,
2013-06-06 03:33:00,62.0,12.0,-100.00,NW,312,5.0,11.0,14,0.00,,,0.00,0.000000,,2013-06-06 10:33:00,
2013-06-06 03:53:00,62.0,20.0,-100.00,North,359,5.0,16.0,20,0.00,,,0.00,0.000000,,2013-06-06 10:53:00,
2013-06-06 04:02:00,62.0,20.0,-100.00,North,359,5.0,16.0,20,0.00,,,0.00,0.000000,,2013-06-06 11:02:00,
2013-06-06 04:12:00,62.0,20.0,-100.00,North,359,5.0,16.0,20,0.00,,,0.00,0.000000,,2013-06-06 11:12:00,
2013-06-06 04:22:00,62.0,20.0,-100.00,North,359,5.0,16.0,20,0.00,,,0.00,0.000000,,2013-06-06 11:22:00,
2013-06-06 04:32:00,62.0,20.0,-100.00,North,359,5.0,16.0,20,0.00,,,0.00,0.000000,,2013-06-06 11:32:00,
2013-06-06 04:52:00,62.0,19.0,-100.00,North,354,7.0,14.0,19,0.00,,,0.00,0.000000,,2013-06-06 11:52:00,
2013-06-06 05:02:00,62.0,19.0,-100.00,North,354,7.0,14.0,19,0.00,,,0.00,0.000000,,2013-06-06 12:02:00,
2013-06-06 05:12:00,62.0,19.0,-100.00,North,354,7.0,14.0,19,0.00,,,0.00,0.000000,,2013-06-06 12:12:00,
2013-06-06 05:22:00,62.0,19.0,-100.00,North,354,7.0,14.0,19,0.00,,,0.00,0.000000,,2013-06-06 12:22:00,
2013-06-06 05:32:00,62.0,19.0,-100.00,North,354,7.0,14.0,19,0.00,,,0.00,0.000000,,2013-06-06 12:32:00,
2013-06-06 05:53:00,62.0,19.0,-100.00,NNW,343,9.0,16.0,19,0.00,,,0.00,5.000000,,2013-06-06 12:53:00,
2013-06-06 06:03:00,62.0,19.0,-100.00,NNW,343,9.0,16.0,19,0.00,,,0.00,5.000000,,2013-06-06 13:03:00,
2013-06-06 06:12:00,62.0,19.0,-100.00,NNW,343,9.0,16.0,19,0.00,,,0.00,5.000000,,2013-06-06 13:12:00,
2013-06-06 06:22:00,62.0,19.0,-100.00,NNW,343,9.0,16.0,19,0.00,,,0.00,5.000000,,2013-06-06 13:22:00,
2013-06-06 06:32:00,62.0,19.0,-100.00,NNW,343,9.0,16.0,19,0.00,,,0.00,5.000000,,2013-06-06 13:32:00,
2013-06-06 06:53:00,68.0,24.0,-100.00,North,4,5.0,14.0,19,0.00,,,0.00,153.000000,,2013-06-06 13:53:00,
2013-06-06 07:03:00,68.0,24.0,-100.00,North,4,5.0,14.0,19,0.00,,,0.00,153.000000,,2013-06-06 14:03:00,
2013-06-06 07:12:00,68.0,24.0,-100.00,North,4,5.0,14.0,19,0.00,,,0.00,153.000000,,2013-06-06 14:12:00,
2013-06-06 07:22:00,68.0,24.0,-100.00,North,4,5.0,14.0,19,0.00,,,0.00,153.000000,,2013-06-06 14:22:00,
2013-06-06 07:32:00,68.0,24.0,-100.00,North,4,5.0,14.0,19,0.00,,,0.00,153.000000,,2013-06-06 14:32:00,
2013-06-06 08:03:00,72.0,25.0,-100.00,North,1,6.0,14.0,17,0.00,,,0.00,399.000000,,2013-06-06 15:03:00,
2013-06-06 08:12:00,72.0,25.0,-100.00,North,1,6.0,14.0,17,0.00,,,0.00,399.000000,,2013-06-06 15:12:00,
2013-06-06 08:22:00,72.0,25.0,-100.00,North,1,6.0,14.0,17,0.00,,,0.00,399.000000,,2013-06-06 15:22:00,
2013-06-06 08:32:00,72.0,25.0,-100.00,North,1,6.0,14.0,17,0.00,,,0.00,399.000000,,2013-06-06 15:32:00,
2013-06-06 09:03:00,74.0,25.0,-100.00,NE,44,7.0,16.0,16,0.00,,,0.00,676.000000,,2013-06-06 16:03:00,
2013-06-06 09:12:00,74.0,25.0,-100.00,NE,44,7.0,16.0,16,0.00,,,0.00,676.000000,,2013-06-06 16:12:00,
2013-06-06 09:22:00,74.0,25.0,-100.00,NE,44,7.0,16.0,16,0.00,,,0.00,676.000000,,2013-06-06 16:22:00,
2013-06-06 09:33:00,74.0,25.0,-100.00,NE,44,7.0,16.0,16,0.00,,,0.00,676.000000,,2013-06-06 16:33:00,
2013-06-06 09:53:00,77.0,24.0,-100.00,North,11,5.0,13.0,14,0.00,,,0.00,914.000000,,2013-06-06 16:53:00,
2013-06-06 10:03:00,77.0,24.0,-100.00,North,11,5.0,13.0,14,0.00,,,0.00,914.000000,,2013-06-06 17:03:00,
2013-06-06 10:13:00,77.0,24.0,-100.00,North,11,5.0,13.0,14,0.00,,,0.00,914.000000,,2013-06-06 17:13:00,
2013-06-06 10:22:00,77.0,24.0,-100.00,North,11,5.0,13.0,14,0.00,,,0.00,914.000000,,2013-06-06 17:22:00,
2013-06-06 10:32:00,77.0,24.0,-100.00,North,11,5.0,13.0,14,0.00,,,0.00,914.000000,,2013-06-06 17:32:00,
2013-06-06 11:03:00,78.0,25.0,-100.00,SE,130,5.0,12.0,14,0.00,,,0.00,1099.000000,,2013-06-06 18:03:00,
2013-06-06 11:12:00,78.0,25.0,-100.00,SE,130,5.0,12.0,14,0.00,,,0.00,1099.000000,,2013-06-06 18:12:00,
2013-06-06 11:22:00,78.0,25.0,-100.00,SE,130,5.0,12.0,14,0.00,,,0.00,1099.000000,,2013-06-06 18:22:00,
2013-06-06 11:33:00,78.0,25.0,-100.00,SE,130,5.0,12.0,14,0.00,,,0.00,1099.000000,,2013-06-06 18:33:00,
2013-06-06 12:03:00,80.0,27.0,-100.00,SE,146,6.0,11.0,14,0.00,,,0.00,1215.000000,,2013-06-06 19:03:00,
2013-06-06 12:12:00,80.0,27.0,-100.00,SE,146,6.0,11.0,14,0.00,,,0.00,1215.000000,,2013-06-06 19:12:00,
2013-06-06 12:23:00,80.0,27.0,-100.00,SE,146,6.0,11.0,14,0.00,,,0.00,1215.000000,,2013-06-06 19:23:00,
2013-06-06 12:32:00,80.0,27.0,-100.00,SE,146,6.0,11.0,14,0.00,,,0.00,1215.000000,,2013-06-06 19:32:00,
2013-06-06 12:53:00,83.0,27.0,-100.00,SSW,196,4.0,9.0,13,0.00,,,0.00,1268.000000,,2013-06-06 19:53:00,
2013-06-06 13:03:00,83.0,27.0,-100.00,SSW,196,4.0,9.0,13,0.00,,,0.00,1268.000000,,2013-06-06 20:03:00,
2013-06-06 13:12:00,83.0,27.0,-100.00,SSW,196,4.0,9.0,13,0.00,,,0.00,1268.000000,,2013-06-06 20:12:00,
2013-06-06 13:22:00,83.0,27.0,-100.00,SSW,196,4.0,9.0,13,0.00,,,0.00,1268.000000,,2013-06-06 20:22:00,
2013-06-06 13:32:00,83.0,27.0,-100.00,SSW,196,4.0,9.0,13,0.00,,,0.00,1268.000000,,2013-06-06 20:32:00,
2013-06-06 13:53:00,83.0,25.0,-100.00,SSW,200,5.0,13.0,12,0.00,,,0.00,1241.000000,,2013-06-06 20:53:00,
2013-06-06 14:03:00,83.0,25.0,-100.00,SSW,200,5.0,13.0,12,0.00,,,0.00,1241.000000,,2013-06-06 21:03:00,
2013-06-06 14:12:00,83.0,25.0,-100.00,SSW,200,5.0,13.0,12,0.00,,,0.00,1241.000000,,2013-06-06 21:12:00,
2013-06-06 14:22:00,83.0,25.0,-100.00,SSW,200,5.0,13.0,12,0.00,,,0.00,1241.000000,,2013-06-06 21:22:00,
2013-06-06 14:33:00,83.0,25.0,-100.00,SSW,200,5.0,13.0,12,0.00,,,0.00,1241.000000,,2013-06-06 21:33:00,
2013-06-06 14:53:00,84.0,28.0,-100.00,South,177,4.0,13.0,13,0.00,,,0.00,1157.000000,,2013-06-06 21:53:00,
2013-06-06 15:02:00,84.0,28.0,-100.00,South,177,4.0,13.0,13,0.00,,,0.00,1157.000000,,2013-06-06 22:02:00,
2013-06-06 15:13:00,84.0,28.0,-100.00,South,177,4.0,13.0,13,0.00,,,0.00,1157.000000,,2013-06-06 22:13:00,
2013-06-06 15:23:00,84.0,28.0,-100.00,South,177,4.0,13.0,13,0.00,,,0.00,1157.000000,,2013-06-06 22:23:00,
2013-06-06 15:33:00,84.0,28.0,-100.00,South,177,4.0,13.0,13,0.00,,,0.00,1157.000000,,2013-06-06 22:33:00,
2013-06-06 15:53:00,85.0,27.0,-100.00,SW,235,6.0,12.0,12,0.00,,,0.00,1024.000000,,2013-06-06 22:53:00,
2013-06-06 16:02:00,85.0,27.0,-100.00,SW,235,6.0,12.0,12,0.00,,,0.00,1024.000000,,2013-06-06 23:02:00,
2013-06-06 16:12:00,85.0,27.0,-100.00,SW,235,6.0,12.0,12,0.00,,,0.00,1024.000000,,2013-06-06 23:12:00,
2013-06-06 16:22:00,85.0,27.0,-100.00,SW,235,6.0,12.0,12,0.00,,,0.00,1024.000000,,2013-06-06 23:22:00,
2013-06-06 16:33:00,85.0,27.0,-100.00,SW,235,6.0,12.0,12,0.00,,,0.00,1024.000000,,2013-06-06 23:33:00,
2013-06-06 16:52:00,83.0,27.0,-100.00,WSW,246,9.0,16.0,13,0.00,,,-99.99,812.000000,,2013-06-06 23:52:00,
2013-06-06 17:02:00,83.0,27.0,-100.00,WSW,246,9.0,16.0,13,0.00,,,-99.99,812.000000,,2013-06-07 00:02:00,
2013-06-06 17:12:00,83.0,27.0,-100.00,WSW,246,9.0,16.0,13,0.00,,,-99.99,812.000000,,2013-06-07 00:12:00,
2013-06-06 17:22:00,83.0,27.0,-100.00,WSW,246,9.0,16.0,13,0.00,,,-99.99,812.000000,,2013-06-07 00:22:00,
2013-06-06 17:32:00,83.0,27.0,-100.00,WSW,246,9.0,16.0,13,0.00,,,-99.99,812.000000,,2013-06-07 00:32:00,
2013-06-06 17:52:00,80.0,25.0,-100.00,WSW,242,7.0,18.0,13,0.00,,,0.00,558.000000,,2013-06-07 00:52:00,
2013-06-06 18:02:00,80.0,25.0,-100.00,WSW,242,7.0,18.0,13,0.00,,,0.00,558.000000,,2013-06-07 01:02:00,
2013-06-06 18:12:00,80.0,25.0,-100.00,WSW,242,7.0,18.0,13,0.00,,,0.00,558.000000,,2013-06-07 01:12:00,
2013-06-06 18:22:00,80.0,25.0,-100.00,WSW,242,7.0,18.0,13,0.00,,,0.00,558.000000,,2013-06-07 01:22:00,
2013-06-06 18:32:00,80.0,25.0,-100.00,WSW,242,7.0,18.0,13,0.00,,,0.00,558.000000,,2013-06-07 01:32:00,
2013-06-06 18:52:00,74.0,23.0,-100.00,WSW,251,8.0,16.0,15,0.00,,,0.00,185.000000,,2013-06-07 01:52:00,
2013-06-06 19:02:00,74.0,23.0,-100.00,WSW,251,8.0,16.0,15,0.00,,,0.00,185.000000,,2013-06-07 02:02:00,
2013-06-06 19:12:00,74.0,23.0,-100.00,WSW,251,8.0,16.0,15,0.00,,,0.00,185.000000,,2013-06-07 02:12:00,
2013-06-06 19:22:00,74.0,23.0,-100.00,WSW,251,8.0,16.0,15,0.00,,,0.00,185.000000,,2013-06-07 02:22:00,
2013-06-06 19:32:00,74.0,23.0,-100.00,WSW,251,8.0,16.0,15,0.00,,,0.00,185.000000,,2013-06-07 02:32:00,
2013-06-06 19:52:00,69.0,22.0,-100.00,West,278,7.0,14.0,17,0.00,,,0.00,26.000000,,2013-06-07 02:52:00,
2013-06-06 20:02:00,69.0,22.0,-100.00,West,278,7.0,14.0,17,0.00,,,0.00,26.000000,,2013-06-07 03:02:00,
2013-06-06 20:12:00,69.0,22.0,-100.00,West,278,7.0,14.0,17,0.00,,,0.00,26.000000,,2013-06-07 03:12:00,
2013-06-06 20:22:00,69.0,22.0,-100.00,West,278,7.0,14.0,17,0.00,,,0.00,26.000000,,2013-06-07 03:22:00,
2013-06-06 20:32:00,69.0,22.0,-100.00,West,278,7.0,14.0,17,0.00,,,0.00,26.000000,,2013-06-07 03:32:00,
2013-06-06 20:53:00,69.0,22.0,-100.00,NW,321,5.0,12.0,17,0.00,,,0.00,0.000000,,2013-06-07 03:53:00,
2013-06-06 21:03:00,69.0,22.0,-100.00,NW,321,5.0,12.0,17,0.00,,,0.00,0.000000,,2013-06-07 04:03:00,
2013-06-06 21:12:00,69.0,22.0,-100.00,NW,321,5.0,12.0,17,0.00,,,0.00,0.000000,,2013-06-07 04:12:00,
2013-06-06 21:22:00,69.0,22.0,-100.00,NW,321,5.0,12.0,17,0.00,,,0.00,0.000000,,2013-06-07 04:22:00,
2013-06-06 21:33:00,69.0,22.0,-100.00,NW,321,5.0,12.0,17,0.00,,,0.00,0.000000,,2013-06-07 04:33:00,
2013-06-06 21:53:00,69.0,21.0,-100.00,NW,318,3.0,5.0,16,0.00,,,0.00,0.000000,,2013-06-07 04:53:00,
2013-06-06 22:03:00,69.0,21.0,-100.00,NW,318,3.0,5.0,16,0.00,,,0.00,0.000000,,2013-06-07 05:03:00,
2013-06-06 22:12:00,69.0,21.0,-100.00,NW,318,3.0,5.0,16,0.00,,,0.00,0.000000,,2013-06-07 05:12:00,
2013-06-06 22:22:00,69.0,21.0,-100.00,NW,318,3.0,5.0,16,0.00,,,0.00,0.000000,,2013-06-07 05:22:00,
2013-06-06 22:32:00,69.0,21.0,-100.00,NW,318,3.0,5.0,16,0.00,,,0.00,0.000000,,2013-06-07 05:32:00,
2013-06-06 22:52:00,69.0,18.0,-100.00,NW,322,5.0,8.0,14,0.00,,,0.00,0.000000,,2013-06-07 05:52:00,
2013-06-06 23:02:00,69.0,18.0,-100.00,NW,322,5.0,8.0,14,0.00,,,0.00,0.000000,,2013-06-07 06:02:00,
2013-06-06 23:12:00,69.0,18.0,-100.00,NW,322,5.0,8.0,14,0.00,,,0.00,0.000000,,2013-06-07 06:12:00,
2013-06-06 23:22:00,69.0,18.0,-100.00,NW,322,5.0,8.0,14,0.00,,,0.00,0.000000,,2013-06-07 06:22:00,
2013-06-06 23:32:00,69.0,18.0,-100.00,NW,322,5.0,8.0,14,0.00,,,0.00,0.000000,,2013-06-07 06:32:00,
2013-06-06 23:52:00,69.0,19.0,-100.00,North,354,1.0,7.0,15,0.00,,,0.00,0.000000,,2013-06-07 06:52:00,